PRIVATE WETTERSTATION BILLIGHEIM-ALLFELD                       ZURCK
Wetterdaten: Montag, 21.03.2022
Datum Zeit Temp. A. Temp. A. min Temp. A. max Feuchte A. Luftdruck Regen Wind Richtung Richtung Sonnenschein ET Solar Taupunkt Windchill Windben Empfang
21.03.2022 00:00 7,6 C 7,5 C 7,7 C 50 % 1030,0 hPa 0,0 l/m 0,0 km/h (0 Bft) N 0 0 min 0,025 mm 0 W/m -2,1 C 7,6 C 0,0 km/h (0 Bft) 100 %
21.03.2022 00:10 7,4 C 7,4 C 7,5 C 50 % 1030,1 hPa 0,0 l/m 0,0 km/h (0 Bft) N 0 0 min 0,000 mm 0 W/m -2,3 C 7,4 C 0,0 km/h (0 Bft) 100 %
21.03.2022 00:20 7,1 C 7,1 C 7,4 C 51 % 1030,2 hPa 0,0 l/m 0,0 km/h (0 Bft) N 0 0 min 0,000 mm 0 W/m -2,3 C 7,1 C 0,0 km/h (0 Bft) 100 %
21.03.2022 00:30 6,9 C 6,9 C 7,1 C 52 % 1030,3 hPa 0,0 l/m 0,0 km/h (0 Bft) N 0 0 min 0,000 mm 0 W/m -2,3 C 6,9 C 0,0 km/h (0 Bft) 100 %
21.03.2022 00:40 6,9 C 6,8 C 6,9 C 51 % 1030,1 hPa 0,0 l/m 0,0 km/h (0 Bft) O-NO 67 0 min 0,000 mm 0 W/m -2,5 C 6,9 C 8,0 km/h (2 Bft) 100 %
21.03.2022 00:50 6,7 C 6,7 C 6,9 C 51 % 1030,2 hPa 0,0 l/m 0,0 km/h (0 Bft) N 0 0 min 0,000 mm 0 W/m -2,7 C 6,7 C 0,0 km/h (0 Bft) 100 %
21.03.2022 01:00 6,3 C 6,3 C 6,8 C 56 % 1030,2 hPa 0,0 l/m 0,0 km/h (0 Bft) N 0 0 min 0,025 mm 0 W/m -1,8 C 6,3 C 0,0 km/h (0 Bft) 100 %
21.03.2022 01:10 5,6 C 5,6 C 6,3 C 54 % 1030,1 hPa 0,0 l/m 0,0 km/h (0 Bft) N 0 0 min 0,000 mm 0 W/m -3,0 C 5,6 C 0,0 km/h (0 Bft) 100 %
21.03.2022 01:20 5,7 C 5,6 C 5,7 C 54 % 1030,1 hPa 0,0 l/m 0,0 km/h (0 Bft) O-NO 67 0 min 0,000 mm 0 W/m -2,9 C 5,7 C 1,6 km/h (1 Bft) 100 %
21.03.2022 01:30 5,6 C 5,6 C 5,7 C 59 % 1030,2 hPa 0,0 l/m 0,0 km/h (0 Bft) O-NO 67 0 min 0,000 mm 0 W/m -1,8 C 5,6 C 3,2 km/h (1 Bft) 100 %
21.03.2022 01:40 4,9 C 4,9 C 5,5 C 61 % 1030,2 hPa 0,0 l/m 0,0 km/h (0 Bft) NO 45 0 min 0,000 mm 0 W/m -2,0 C 4,9 C 6,4 km/h (2 Bft) 100 %
21.03.2022 01:50 4,4 C 4,4 C 4,9 C 62 % 1030,2 hPa 0,0 l/m 0,0 km/h (0 Bft) N 0 0 min 0,000 mm 0 W/m -2,2 C 4,4 C 0,0 km/h (0 Bft) 100 %
21.03.2022 02:00 4,2 C 4,2 C 4,4 C 62 % 1030,2 hPa 0,0 l/m 0,0 km/h (0 Bft) N 0 0 min 0,025 mm 0 W/m -2,4 C 4,2 C 0,0 km/h (0 Bft) 100 %
21.03.2022 02:10 4,0 C 4,0 C 4,2 C 63 % 1030,1 hPa 0,0 l/m 0,0 km/h (0 Bft) N 0 0 min 0,000 mm 0 W/m -2,4 C 4,0 C 0,0 km/h (0 Bft) 88 %
21.03.2022 02:20 3,8 C 3,8 C 4,0 C 64 % 1030,2 hPa 0,0 l/m 0,0 km/h (0 Bft) N-NO 22 0 min 0,000 mm 0 W/m -2,4 C 3,8 C 1,6 km/h (1 Bft) 100 %
21.03.2022 02:30 3,7 C 3,6 C 3,8 C 64 % 1030,3 hPa 0,0 l/m 0,0 km/h (0 Bft) N 0 0 min 0,000 mm 0 W/m -2,5 C 3,7 C 0,0 km/h (0 Bft) 100 %
21.03.2022 02:40 3,6 C 3,6 C 3,6 C 64 % 1030,4 hPa 0,0 l/m 0,0 km/h (0 Bft) N 360 0 min 0,000 mm 0 W/m -2,6 C 3,6 C 6,4 km/h (2 Bft) 100 %
21.03.2022 02:50 3,6 C 3,6 C 3,7 C 63 % 1030,4 hPa 0,0 l/m 0,0 km/h (0 Bft) N 0 0 min 0,000 mm 0 W/m -2,8 C 3,6 C 0,0 km/h (0 Bft) 100 %
21.03.2022 03:00 3,8 C 3,6 C 3,8 C 63 % 1030,5 hPa 0,0 l/m 0,0 km/h (0 Bft) N 360 0 min 0,025 mm 0 W/m -2,6 C 3,8 C 3,2 km/h (1 Bft) 100 %
21.03.2022 03:10 3,6 C 3,6 C 3,8 C 63 % 1030,5 hPa 0,0 l/m 0,0 km/h (0 Bft) N 360 0 min 0,000 mm 0 W/m -2,8 C 3,6 C 4,8 km/h (1 Bft) 100 %
21.03.2022 03:20 3,6 C 3,5 C 3,6 C 63 % 1030,5 hPa 0,0 l/m 0,0 km/h (0 Bft) N-NO 22 0 min 0,000 mm 0 W/m -2,8 C 3,6 C 6,4 km/h (2 Bft) 100 %
21.03.2022 03:30 3,6 C 3,6 C 3,6 C 62 % 1030,5 hPa 0,0 l/m 0,0 km/h (0 Bft) N 360 0 min 0,000 mm 0 W/m -3,0 C 3,6 C 1,6 km/h (1 Bft) 100 %
21.03.2022 03:40 3,7 C 3,6 C 3,7 C 63 % 1030,4 hPa 0,0 l/m 0,0 km/h (0 Bft) N-NO 22 0 min 0,000 mm 0 W/m -2,7 C 3,7 C 1,6 km/h (1 Bft) 100 %
21.03.2022 03:50 3,5 C 3,5 C 3,7 C 63 % 1030,4 hPa 0,0 l/m 0,0 km/h (0 Bft) O 90 0 min 0,000 mm 0 W/m -2,9 C 3,5 C 6,4 km/h (2 Bft) 100 %
21.03.2022 04:00 3,5 C 3,4 C 3,5 C 62 % 1030,3 hPa 0,0 l/m 0,0 km/h (0 Bft) O-NO 67 0 min 0,025 mm 0 W/m -3,1 C 3,5 C 1,6 km/h (1 Bft) 91 %
21.03.2022 04:10 3,3 C 3,3 C 3,5 C 63 % 1030,3 hPa 0,0 l/m 1,6 km/h (1 Bft) W-NW 292 0 min 0,000 mm 0 W/m -3,1 C 3,3 C 6,4 km/h (2 Bft) 100 %
21.03.2022 04:20 3,1 C 3,1 C 3,3 C 64 % 1030,4 hPa 0,0 l/m 0,0 km/h (0 Bft) W 270 0 min 0,000 mm 0 W/m -3,0 C 3,1 C 3,2 km/h (1 Bft) 100 %
21.03.2022 04:30 3,5 C 3,1 C 3,5 C 61 % 1030,5 hPa 0,0 l/m 0,0 km/h (0 Bft) SO 135 0 min 0,000 mm 0 W/m -3,3 C 3,5 C 6,4 km/h (2 Bft) 100 %
21.03.2022 04:40 3,3 C 3,3 C 3,6 C 63 % 1030,5 hPa 0,0 l/m 0,0 km/h (0 Bft) N 0 0 min 0,000 mm 0 W/m -3,1 C 3,3 C 0,0 km/h (0 Bft) 100 %
21.03.2022 04:50 3,0 C 3,0 C 3,3 C 64 % 1030,6 hPa 0,0 l/m 0,0 km/h (0 Bft) N 0 0 min 0,000 mm 0 W/m -3,1 C 3,0 C 0,0 km/h (0 Bft) 100 %
21.03.2022 05:00 2,8 C 2,8 C 3,0 C 64 % 1030,6 hPa 0,0 l/m 0,0 km/h (0 Bft) N 0 0 min 0,025 mm 0 W/m -3,3 C 2,8 C 0,0 km/h (0 Bft) 100 %
21.03.2022 05:10 2,7 C 2,7 C 2,8 C 65 % 1030,8 hPa 0,0 l/m 0,0 km/h (0 Bft) N 0 0 min 0,000 mm 0 W/m -3,2 C 2,7 C 0,0 km/h (0 Bft) 100 %
21.03.2022 05:20 2,4 C 2,4 C 2,7 C 65 % 1030,7 hPa 0,0 l/m 0,0 km/h (0 Bft) W-NW 292 0 min 0,000 mm 0 W/m -3,5 C 2,4 C 4,8 km/h (1 Bft) 100 %
21.03.2022 05:30 2,3 C 2,3 C 2,4 C 65 % 1030,7 hPa 0,0 l/m 0,0 km/h (0 Bft) N 0 0 min 0,000 mm 0 W/m -3,6 C 2,3 C 0,0 km/h (0 Bft) 90 %
21.03.2022 05:40 2,3 C 2,3 C 2,3 C 66 % 1030,9 hPa 0,0 l/m 0,0 km/h (0 Bft) N 0 0 min 0,000 mm 0 W/m -3,4 C 2,3 C 0,0 km/h (0 Bft) 100 %
21.03.2022 05:50 2,2 C 2,2 C 2,3 C 66 % 1030,9 hPa 0,0 l/m 0,0 km/h (0 Bft) N 0 0 min 0,000 mm 0 W/m -3,5 C 2,2 C 0,0 km/h (0 Bft) 100 %
21.03.2022 06:00 2,0 C 2,0 C 2,2 C 67 % 1030,9 hPa 0,0 l/m 0,0 km/h (0 Bft) NW 315 0 min 0,025 mm 0 W/m -3,5 C 2,0 C 1,6 km/h (1 Bft) 100 %
21.03.2022 06:10 1,9 C 1,9 C 2,0 C 67 % 1031,0 hPa 0,0 l/m 0,0 km/h (0 Bft) N 0 0 min 0,000 mm 0 W/m -3,6 C 1,9 C 0,0 km/h (0 Bft) 98 %
21.03.2022 06:20 1,7 C 1,7 C 1,9 C 68 % 1031,2 hPa 0,0 l/m 0,0 km/h (0 Bft) N 0 0 min 0,000 mm 0 W/m -3,6 C 1,7 C 0,0 km/h (0 Bft) 98 %
21.03.2022 06:30 1,5 C 1,5 C 1,7 C 69 % 1031,2 hPa 0,0 l/m 0,0 km/h (0 Bft) N 0 0 min 0,000 mm 5 W/m -3,6 C 1,5 C 0,0 km/h (0 Bft) 97 %
21.03.2022 06:40 1,4 C 1,4 C 1,5 C 70 % 1031,2 hPa 0,0 l/m 0,0 km/h (0 Bft) N 0 0 min 0,000 mm 12 W/m -3,5 C 1,4 C 0,0 km/h (0 Bft) 98 %
21.03.2022 06:50 1,2 C 1,2 C 1,4 C 71 % 1031,3 hPa 0,0 l/m 0,0 km/h (0 Bft) N 0 0 min 0,000 mm 19 W/m -3,5 C 1,2 C 0,0 km/h (0 Bft) 97 %
21.03.2022 07:00 1,1 C 1,1 C 1,2 C 72 % 1031,4 hPa 0,0 l/m 0,0 km/h (0 Bft) N 0 0 min 0,000 mm 26 W/m -3,4 C 1,1 C 0,0 km/h (0 Bft) 98 %
21.03.2022 07:10 1,1 C 1,1 C 1,1 C 72 % 1031,5 hPa 0,0 l/m 0,0 km/h (0 Bft) N 0 0 min 0,000 mm 35 W/m -3,4 C 1,1 C 0,0 km/h (0 Bft) 86 %
21.03.2022 07:20 1,2 C 1,1 C 1,2 C 72 % 1031,6 hPa 0,0 l/m 0,0 km/h (0 Bft) N 0 0 min 0,000 mm 42 W/m -3,3 C 1,2 C 0,0 km/h (0 Bft) 98 %
21.03.2022 07:30 1,3 C 1,1 C 1,3 C 72 % 1031,6 hPa 0,0 l/m 0,0 km/h (0 Bft) N 0 0 min 0,000 mm 54 W/m -3,2 C 1,3 C 0,0 km/h (0 Bft) 97 %
21.03.2022 07:40 1,4 C 1,3 C 1,4 C 72 % 1031,7 hPa 0,0 l/m 0,0 km/h (0 Bft) N 0 0 min 0,000 mm 62 W/m -3,1 C 1,4 C 0,0 km/h (0 Bft) 97 %
21.03.2022 07:50 1,7 C 1,4 C 1,7 C 72 % 1031,7 hPa 0,0 l/m 0,0 km/h (0 Bft) N 0 0 min 0,000 mm 91 W/m -2,8 C 1,7 C 0,0 km/h (0 Bft) 98 %
21.03.2022 08:00 2,1 C 1,7 C 2,1 C 72 % 1031,8 hPa 0,0 l/m 0,0 km/h (0 Bft) N 0 10 min 0,025 mm 158 W/m -2,4 C 2,1 C 0,0 km/h (0 Bft) 97 %
21.03.2022 08:10 2,8 C 2,1 C 2,8 C 70 % 1031,8 hPa 0,0 l/m 0,0 km/h (0 Bft) N 0 10 min 0,000 mm 185 W/m -2,1 C 2,8 C 0,0 km/h (0 Bft) 98 %
21.03.2022 08:20 3,5 C 2,8 C 3,5 C 69 % 1031,9 hPa 0,0 l/m 0,0 km/h (0 Bft) N 0 10 min 0,000 mm 211 W/m -1,6 C 3,5 C 0,0 km/h (0 Bft) 97 %
21.03.2022 08:30 4,5 C 3,5 C 4,5 C 65 % 1032,1 hPa 0,0 l/m 0,0 km/h (0 Bft) N 0 10 min 0,000 mm 236 W/m -1,5 C 4,5 C 0,0 km/h (0 Bft) 98 %
21.03.2022 08:40 5,5 C 4,5 C 5,5 C 64 % 1032,0 hPa 0,0 l/m 0,0 km/h (0 Bft) N 0 10 min 0,000 mm 262 W/m -0,8 C 5,5 C 0,0 km/h (0 Bft) 97 %
21.03.2022 08:50 6,2 C 5,6 C 6,2 C 60 % 1032,0 hPa 0,0 l/m 0,0 km/h (0 Bft) N 0 10 min 0,000 mm 287 W/m -1,0 C 6,2 C 0,0 km/h (0 Bft) 97 %
21.03.2022 09:00 6,7 C 6,2 C 6,7 C 61 % 1032,1 hPa 0,0 l/m 0,0 km/h (0 Bft) N 0 10 min 0,102 mm 308 W/m -0,3 C 6,7 C 0,0 km/h (0 Bft) 99 %
21.03.2022 09:10 7,2 C 6,7 C 7,2 C 57 % 1032,1 hPa 0,0 l/m 0,0 km/h (0 Bft) N 0 10 min 0,000 mm 329 W/m -0,7 C 7,2 C 0,0 km/h (0 Bft) 97 %
21.03.2022 09:20 7,4 C 7,2 C 7,4 C 57 % 1032,3 hPa 0,0 l/m 0,0 km/h (0 Bft) N 0 10 min 0,000 mm 352 W/m -0,5 C 7,4 C 0,0 km/h (0 Bft) 98 %
21.03.2022 09:30 8,2 C 7,5 C 8,2 C 55 % 1032,3 hPa 0,0 l/m 0,0 km/h (0 Bft) NW 315 10 min 0,000 mm 373 W/m -0,3 C 8,2 C 1,6 km/h (1 Bft) 97 %
21.03.2022 09:40 8,4 C 8,2 C 8,4 C 54 % 1032,3 hPa 0,0 l/m 0,0 km/h (0 Bft) N 0 10 min 0,000 mm 392 W/m -0,4 C 8,4 C 0,0 km/h (0 Bft) 98 %
21.03.2022 09:50 9,1 C 8,5 C 9,1 C 52 % 1032,3 hPa 0,0 l/m 0,0 km/h (0 Bft) N 0 10 min 0,000 mm 411 W/m -0,2 C 9,1 C 0,0 km/h (0 Bft) 97 %
21.03.2022 10:00 9,7 C 9,1 C 9,7 C 54 % 1032,3 hPa 0,0 l/m 0,0 km/h (0 Bft) NW 315 10 min 0,178 mm 434 W/m 0,9 C 9,7 C 3,2 km/h (1 Bft) 97 %
21.03.2022 10:10 10,3 C 9,7 C 10,3 C 50 % 1032,2 hPa 0,0 l/m 0,0 km/h (0 Bft) NW 315 10 min 0,000 mm 450 W/m 0,3 C 10,3 C 4,8 km/h (1 Bft) 98 %
21.03.2022 10:20 10,2 C 10,2 C 10,3 C 50 % 1032,1 hPa 0,0 l/m 0,0 km/h (0 Bft) N 0 10 min 0,000 mm 468 W/m 0,3 C 10,2 C 0,0 km/h (0 Bft) 97 %
21.03.2022 10:30 10,3 C 10,2 C 10,3 C 50 % 1032,1 hPa 0,0 l/m 0,0 km/h (0 Bft) NW 315 10 min 0,000 mm 480 W/m 0,3 C 10,3 C 3,2 km/h (1 Bft) 98 %
21.03.2022 10:40 10,4 C 10,3 C 10,4 C 50 % 1032,1 hPa 0,0 l/m 0,0 km/h (0 Bft) NW 315 10 min 0,000 mm 497 W/m 0,4 C 10,4 C 1,6 km/h (1 Bft) 97 %
21.03.2022 10:50 10,8 C 10,4 C 10,8 C 51 % 1032,0 hPa 0,0 l/m 0,0 km/h (0 Bft) N-NW 337 10 min 0,000 mm 504 W/m 1,1 C 10,8 C 6,4 km/h (2 Bft) 97 %
21.03.2022 11:00 11,1 C 10,8 C 11,1 C 47 % 1032,0 hPa 0,0 l/m 0,0 km/h (0 Bft) N-NW 337 10 min 0,229 mm 510 W/m 0,2 C 11,1 C 1,6 km/h (1 Bft) 98 %
21.03.2022 11:10 11,6 C 11,1 C 11,6 C 47 % 1031,9 hPa 0,0 l/m 0,0 km/h (0 Bft) N 0 10 min 0,000 mm 564 W/m 0,7 C 11,6 C 0,0 km/h (0 Bft) 98 %
21.03.2022 11:20 11,8 C 11,6 C 11,8 C 46 % 1031,8 hPa 0,0 l/m 0,0 km/h (0 Bft) N-NW 337 10 min 0,000 mm 568 W/m 0,6 C 11,8 C 4,8 km/h (1 Bft) 98 %
21.03.2022 11:30 11,9 C 11,8 C 12,0 C 46 % 1031,8 hPa 0,0 l/m 0,0 km/h (0 Bft) N-NW 337 10 min 0,000 mm 550 W/m 0,7 C 11,9 C 4,8 km/h (1 Bft) 97 %
21.03.2022 11:40 12,1 C 11,9 C 12,1 C 46 % 1031,8 hPa 0,0 l/m 0,0 km/h (0 Bft) N 360 10 min 0,000 mm 524 W/m 0,8 C 12,1 C 1,6 km/h (1 Bft) 98 %
21.03.2022 11:50 12,2 C 12,0 C 12,2 C 46 % 1031,8 hPa 0,0 l/m 1,6 km/h (1 Bft) O 90 10 min 0,000 mm 599 W/m 0,9 C 12,2 C 6,4 km/h (2 Bft) 98 %
21.03.2022 12:00 13,0 C 12,2 C 13,0 C 48 % 1031,7 hPa 0,0 l/m 0,0 km/h (0 Bft) NO 45 10 min 0,254 mm 598 W/m 2,3 C 13,0 C 4,8 km/h (1 Bft) 97 %
21.03.2022 12:10 13,3 C 13,1 C 13,3 C 47 % 1031,7 hPa 0,0 l/m 0,0 km/h (0 Bft) N-NO 22 10 min 0,000 mm 568 W/m 2,2 C 13,3 C 8,0 km/h (2 Bft) 98 %
21.03.2022 12:20 13,4 C 13,2 C 13,4 C 42 % 1031,6 hPa 0,0 l/m 1,6 km/h (1 Bft) O 90 10 min 0,000 mm 606 W/m 0,8 C 13,4 C 9,7 km/h (2 Bft) 97 %
21.03.2022 12:50 14,2 C 13,2 C 14,2 C 44 % 1031,4 hPa 0,0 l/m 0,5 km/h (0 Bft) NO 42 30 min 0,000 mm 573 W/m 2,1 C 14,2 C 9,7 km/h (2 Bft) 100 %
21.03.2022 13:00 14,4 C 14,2 C 14,4 C 43 % 1031,2 hPa 0,0 l/m 0,0 km/h (0 Bft) N-NO 29 10 min 0,256 mm 670 W/m 2,0 C 14,4 C 1,6 km/h (1 Bft) 100 %
21.03.2022 13:10 14,5 C 14,4 C 14,5 C 40 % 1031,2 hPa 0,0 l/m 0,6 km/h (0 Bft) S-SW 198 10 min 0,000 mm 622 W/m 1,1 C 14,5 C 8,0 km/h (2 Bft) 100 %
21.03.2022 13:20 14,7 C 14,5 C 14,8 C 38 % 1031,0 hPa 0,0 l/m 0,3 km/h (0 Bft) O-SO 121 10 min 0,000 mm 547 W/m 0,5 C 14,7 C 6,4 km/h (2 Bft) 100 %
21.03.2022 13:30 14,6 C 14,6 C 14,7 C 38 % 1030,9 hPa 0,0 l/m 2,8 km/h (1 Bft) O-NO 78 10 min 0,000 mm 468 W/m 0,4 C 14,6 C 16,1 km/h (3 Bft) 100 %
21.03.2022 13:40 14,4 C 14,4 C 14,6 C 39 % 1030,7 hPa 0,0 l/m 0,8 km/h (0 Bft) O-SO 114 10 min 0,000 mm 452 W/m 0,6 C 14,4 C 9,7 km/h (2 Bft) 99 %
21.03.2022 13:50 14,6 C 14,4 C 14,6 C 40 % 1030,7 hPa 0,0 l/m 0,0 km/h (0 Bft) O-SO 117 10 min 0,000 mm 438 W/m 1,2 C 14,6 C 1,6 km/h (1 Bft) 99 %
21.03.2022 14:00 15,0 C 14,6 C 15,0 C 39 % 1030,7 hPa 0,0 l/m 0,4 km/h (0 Bft) O-SO 121 10 min 0,280 mm 527 W/m 1,2 C 15,0 C 6,4 km/h (2 Bft) 100 %
21.03.2022 14:10 15,1 C 15,0 C 15,1 C 40 % 1030,6 hPa 0,0 l/m 0,1 km/h (0 Bft) O 80 10 min 0,000 mm 513 W/m 1,6 C 15,1 C 4,8 km/h (1 Bft) 99 %
21.03.2022 14:20 15,3 C 15,1 C 15,3 C 40 % 1030,6 hPa 0,0 l/m 0,1 km/h (0 Bft) NO 55 10 min 0,000 mm 494 W/m 1,8 C 15,3 C 4,8 km/h (1 Bft) 91 %
21.03.2022 14:30 15,5 C 15,3 C 15,5 C 41 % 1030,6 hPa 0,0 l/m 0,1 km/h (0 Bft) O-NO 71 10 min 0,000 mm 450 W/m 2,3 C 15,5 C 4,8 km/h (1 Bft) 100 %
21.03.2022 14:40 15,8 C 15,5 C 15,8 C 41 % 1030,5 hPa 0,0 l/m 0,1 km/h (0 Bft) O 90 10 min 0,000 mm 413 W/m 2,6 C 15,8 C 4,8 km/h (1 Bft) 100 %
21.03.2022 14:50 16,0 C 15,8 C 16,1 C 40 % 1030,5 hPa 0,0 l/m 0,1 km/h (0 Bft) N-NO 30 10 min 0,000 mm 404 W/m 2,4 C 16,0 C 8,0 km/h (2 Bft) 100 %
21.03.2022 15:00 15,9 C 15,8 C 16,0 C 41 % 1030,4 hPa 0,0 l/m 0,0 km/h (0 Bft) NO 35 10 min 0,254 mm 376 W/m 2,7 C 15,9 C 1,6 km/h (1 Bft) 100 %
21.03.2022 15:10 15,8 C 15,8 C 15,9 C 41 % 1030,4 hPa 0,0 l/m 0,0 km/h (0 Bft) NO 37 10 min 0,000 mm 381 W/m 2,6 C 15,8 C 1,6 km/h (1 Bft) 100 %
21.03.2022 15:20 16,0 C 15,8 C 16,0 C 41 % 1030,3 hPa 0,0 l/m 0,0 km/h (0 Bft) NO 44 10 min 0,000 mm 306 W/m 2,8 C 16,0 C 1,6 km/h (1 Bft) 100 %
21.03.2022 15:30 15,9 C 15,9 C 16,1 C 41 % 1030,1 hPa 0,0 l/m 0,0 km/h (0 Bft) N-NO 32 10 min 0,000 mm 301 W/m 2,7 C 15,9 C 1,6 km/h (1 Bft) 100 %
21.03.2022 15:40 15,8 C 15,7 C 15,9 C 41 % 1030,2 hPa 0,0 l/m 0,0 km/h (0 Bft) N-NO 32 10 min 0,000 mm 292 W/m 2,6 C 15,8 C 1,6 km/h (1 Bft) 100 %
21.03.2022 15:50 15,7 C 15,7 C 15,8 C 39 % 1030,2 hPa 0,0 l/m 0,0 km/h (0 Bft) N-NO 32 10 min 0,000 mm 258 W/m 1,8 C 15,7 C 1,6 km/h (1 Bft) 100 %
21.03.2022 16:00 15,5 C 15,5 C 15,7 C 40 % 1030,1 hPa 0,0 l/m 0,4 km/h (0 Bft) N-NO 26 10 min 0,177 mm 234 W/m 2,0 C 15,5 C 8,0 km/h (2 Bft) 100 %
21.03.2022 16:10 15,6 C 15,5 C 15,6 C 39 % 1030,1 hPa 0,0 l/m 0,0 km/h (0 Bft) N-NO 26 10 min 0,000 mm 200 W/m 1,7 C 15,6 C 1,6 km/h (1 Bft) 100 %
21.03.2022 16:20 15,3 C 15,3 C 15,6 C 38 % 1030,1 hPa 0,0 l/m 0,0 km/h (0 Bft) NO 44 10 min 0,000 mm 163 W/m 1,1 C 15,3 C 3,2 km/h (1 Bft) 100 %
21.03.2022 16:30 15,1 C 15,1 C 15,3 C 40 % 1030,0 hPa 0,0 l/m 0,3 km/h (0 Bft) NO 37 10 min 0,000 mm 225 W/m 1,6 C 15,1 C 11,3 km/h (2 Bft) 100 %
21.03.2022 16:40 15,1 C 15,1 C 15,1 C 40 % 1030,0 hPa 0,0 l/m 0,0 km/h (0 Bft) NO 36 10 min 0,000 mm 163 W/m 1,6 C 15,1 C 1,6 km/h (1 Bft) 100 %
21.03.2022 16:50 14,7 C 14,7 C 15,1 C 41 % 1030,1 hPa 0,0 l/m 0,0 km/h (0 Bft) NO 43 10 min 0,000 mm 156 W/m 1,6 C 14,7 C 1,6 km/h (1 Bft) 100 %
21.03.2022 17:00 14,5 C 14,5 C 14,7 C 42 % 1030,1 hPa 0,0 l/m 0,0 km/h (0 Bft) NO 55 0 min 0,102 mm 144 W/m 1,7 C 14,5 C 0,0 km/h (0 Bft) 100 %
21.03.2022 17:10 14,4 C 14,4 C 14,5 C 41 % 1030,0 hPa 0,0 l/m 0,4 km/h (0 Bft) SO 125 0 min 0,000 mm 97 W/m 1,3 C 14,4 C 8,0 km/h (2 Bft) 100 %
21.03.2022 17:20 14,2 C 14,2 C 14,4 C 43 % 1030,1 hPa 0,0 l/m 0,0 km/h (0 Bft) O-SO 113 0 min 0,000 mm 76 W/m 1,8 C 14,2 C 1,6 km/h (1 Bft) 100 %
21.03.2022 17:30 13,7 C 13,7 C 14,2 C 43 % 1030,0 hPa 0,0 l/m 0,0 km/h (0 Bft) O 79 0 min 0,000 mm 62 W/m 1,4 C 13,7 C 1,6 km/h (1 Bft) 100 %
21.03.2022 17:40 13,3 C 13,3 C 13,7 C 43 % 1030,1 hPa 0,0 l/m 0,0 km/h (0 Bft) O 79 0 min 0,000 mm 53 W/m 1,0 C 13,3 C 1,6 km/h (1 Bft) 100 %
21.03.2022 17:50 13,0 C 13,0 C 13,3 C 44 % 1030,1 hPa 0,0 l/m 0,0 km/h (0 Bft) O-NO 77 0 min 0,000 mm 40 W/m 1,0 C 13,0 C 1,6 km/h (1 Bft) 100 %
21.03.2022 18:00 12,6 C 12,6 C 13,0 C 44 % 1030,1 hPa 0,0 l/m 0,0 km/h (0 Bft) O-NO 71 0 min 0,051 mm 28 W/m 0,7 C 12,6 C 0,0 km/h (0 Bft) 100 %
21.03.2022 18:10 12,2 C 12,2 C 12,6 C 44 % 1030,2 hPa 0,0 l/m 0,3 km/h (0 Bft) O-NO 66 0 min 0,000 mm 19 W/m 0,3 C 12,2 C 3,2 km/h (1 Bft) 100 %
21.03.2022 18:20 11,8 C 11,8 C 12,2 C 45 % 1030,2 hPa 0,0 l/m 0,1 km/h (0 Bft) O-NO 66 0 min 0,000 mm 11 W/m 0,3 C 11,8 C 4,8 km/h (1 Bft) 100 %
21.03.2022 18:30 11,4 C 11,4 C 11,8 C 46 % 1030,1 hPa 0,0 l/m 0,0 km/h (0 Bft) O-NO 66 0 min 0,000 mm 5 W/m 0,2 C 11,4 C 0,0 km/h (0 Bft) 100 %
21.03.2022 18:40 11,1 C 11,1 C 11,4 C 47 % 1030,4 hPa 0,0 l/m 0,0 km/h (0 Bft) O-NO 66 0 min 0,000 mm 0 W/m 0,2 C 11,1 C 0,0 km/h (0 Bft) 100 %
21.03.2022 18:50 10,7 C 10,7 C 11,1 C 47 % 1030,4 hPa 0,0 l/m 0,0 km/h (0 Bft) O-NO 65 0 min 0,000 mm 0 W/m -0,1 C 10,7 C 1,6 km/h (1 Bft) 100 %
21.03.2022 19:00 10,4 C 10,4 C 10,7 C 47 % 1030,4 hPa 0,0 l/m 0,0 km/h (0 Bft) O-NO 65 0 min 0,025 mm 0 W/m -0,4 C 10,4 C 0,0 km/h (0 Bft) 100 %
21.03.2022 19:10 10,0 C 10,0 C 10,4 C 48 % 1030,4 hPa 0,0 l/m 0,0 km/h (0 Bft) O-NO 65 0 min 0,000 mm 0 W/m -0,5 C 10,0 C 0,0 km/h (0 Bft) 100 %
21.03.2022 19:20 9,7 C 9,7 C 10,0 C 48 % 1030,5 hPa 0,0 l/m 0,0 km/h (0 Bft) O-NO 65 0 min 0,000 mm 0 W/m -0,8 C 9,7 C 0,0 km/h (0 Bft) 100 %
21.03.2022 19:30 9,4 C 9,4 C 9,7 C 49 % 1030,5 hPa 0,0 l/m 0,0 km/h (0 Bft) O-NO 65 0 min 0,000 mm 0 W/m -0,8 C 9,4 C 0,0 km/h (0 Bft) 100 %
21.03.2022 19:40 9,2 C 9,2 C 9,4 C 49 % 1030,5 hPa 0,0 l/m 0,0 km/h (0 Bft) O-NO 65 0 min 0,000 mm 0 W/m -0,9 C 9,2 C 0,0 km/h (0 Bft) 100 %
21.03.2022 19:50 8,9 C 8,9 C 9,2 C 49 % 1030,6 hPa 0,0 l/m 0,0 km/h (0 Bft) O-NO 65 0 min 0,000 mm 0 W/m -1,2 C 8,9 C 0,0 km/h (0 Bft) 100 %
21.03.2022 20:00 8,6 C 8,6 C 8,9 C 50 % 1030,6 hPa 0,0 l/m 0,0 km/h (0 Bft) O-NO 65 0 min 0,026 mm 0 W/m -1,2 C 8,6 C 0,0 km/h (0 Bft) 100 %
21.03.2022 20:10 8,3 C 8,3 C 8,6 C 51 % 1030,6 hPa 0,0 l/m 0,0 km/h (0 Bft) O-NO 65 0 min 0,000 mm 0 W/m -1,2 C 8,3 C 0,0 km/h (0 Bft) 100 %
21.03.2022 20:20 8,2 C 8,2 C 8,3 C 51 % 1030,6 hPa 0,0 l/m 0,0 km/h (0 Bft) O-NO 65 0 min 0,000 mm 0 W/m -1,3 C 8,2 C 1,6 km/h (1 Bft) 100 %
21.03.2022 20:30 8,3 C 8,2 C 8,3 C 49 % 1030,8 hPa 0,0 l/m 0,1 km/h (0 Bft) O-NO 63 0 min 0,000 mm 0 W/m -1,8 C 8,3 C 3,2 km/h (1 Bft) 100 %
21.03.2022 20:40 8,5 C 8,3 C 8,5 C 49 % 1030,8 hPa 0,0 l/m 0,0 km/h (0 Bft) O-NO 63 0 min 0,000 mm 0 W/m -1,6 C 8,5 C 0,0 km/h (0 Bft) 100 %
21.03.2022 20:50 8,6 C 8,5 C 8,6 C 48 % 1030,8 hPa 0,0 l/m 0,3 km/h (0 Bft) O-NO 63 0 min 0,000 mm 0 W/m -1,8 C 8,6 C 4,8 km/h (1 Bft) 92 %
21.03.2022 21:00 8,5 C 8,5 C 8,6 C 49 % 1031,1 hPa 0,0 l/m 0,0 km/h (0 Bft) O-NO 63 0 min 0,025 mm 0 W/m -1,6 C 8,5 C 1,6 km/h (1 Bft) 100 %
21.03.2022 21:10 8,3 C 8,3 C 8,5 C 48 % 1031,0 hPa 0,0 l/m 0,0 km/h (0 Bft) N 0 0 min 0,000 mm 0 W/m -2,1 C 8,3 C 0,0 km/h (0 Bft) 97 %
21.03.2022 21:20 8,2 C 8,2 C 8,3 C 49 % 1031,1 hPa 0,0 l/m 0,0 km/h (0 Bft) N 0 0 min 0,000 mm 0 W/m -1,9 C 8,2 C 0,0 km/h (0 Bft) 99 %
21.03.2022 21:30 8,1 C 8,1 C 8,2 C 49 % 1031,0 hPa 0,0 l/m 0,0 km/h (0 Bft) O-NO 67 0 min 0,000 mm 0 W/m -2,0 C 8,1 C 3,2 km/h (1 Bft) 100 %
21.03.2022 21:40 7,9 C 7,9 C 8,0 C 49 % 1030,9 hPa 0,0 l/m 0,0 km/h (0 Bft) N 0 0 min 0,000 mm 0 W/m -2,1 C 7,9 C 0,0 km/h (0 Bft) 100 %
21.03.2022 21:50 7,7 C 7,7 C 7,9 C 50 % 1031,0 hPa 0,0 l/m 0,0 km/h (0 Bft) N 0 0 min 0,000 mm 0 W/m -2,1 C 7,7 C 0,0 km/h (0 Bft) 100 %
21.03.2022 22:00 7,3 C 7,3 C 7,7 C 51 % 1031,0 hPa 0,0 l/m 0,0 km/h (0 Bft) N 0 0 min 0,025 mm 0 W/m -2,2 C 7,3 C 0,0 km/h (0 Bft) 100 %
21.03.2022 22:10 7,1 C 7,1 C 7,3 C 51 % 1031,1 hPa 0,0 l/m 0,0 km/h (0 Bft) N 0 0 min 0,000 mm 0 W/m -2,3 C 7,1 C 0,0 km/h (0 Bft) 100 %
21.03.2022 22:20 6,9 C 6,9 C 7,1 C 51 % 1031,1 hPa 0,0 l/m 0,0 km/h (0 Bft) N 0 0 min 0,000 mm 0 W/m -2,5 C 6,9 C 0,0 km/h (0 Bft) 100 %
21.03.2022 22:30 6,9 C 6,8 C 6,9 C 51 % 1031,1 hPa 0,0 l/m 1,6 km/h (1 Bft) O-NO 67 0 min 0,000 mm 0 W/m -2,5 C 6,9 C 4,8 km/h (1 Bft) 100 %
21.03.2022 22:40 7,0 C 6,8 C 7,0 C 51 % 1031,1 hPa 0,0 l/m 0,0 km/h (0 Bft) O-NO 67 0 min 0,000 mm 0 W/m -2,4 C 7,0 C 1,6 km/h (1 Bft) 100 %
21.03.2022 22:50 7,1 C 7,0 C 7,1 C 49 % 1031,0 hPa 0,0 l/m 0,0 km/h (0 Bft) N 0 0 min 0,000 mm 0 W/m -2,9 C 7,1 C 0,0 km/h (0 Bft) 100 %
21.03.2022 23:00 6,8 C 6,8 C 7,1 C 50 % 1031,1 hPa 0,0 l/m 0,0 km/h (0 Bft) N 0 0 min 0,025 mm 0 W/m -2,9 C 6,8 C 0,0 km/h (0 Bft) 100 %
21.03.2022 23:10 6,6 C 6,6 C 6,8 C 51 % 1031,1 hPa 0,0 l/m 0,0 km/h (0 Bft) N 0 0 min 0,000 mm 0 W/m -2,8 C 6,6 C 0,0 km/h (0 Bft) 87 %
21.03.2022 23:20 6,1 C 6,1 C 6,6 C 55 % 1031,1 hPa 0,0 l/m 0,0 km/h (0 Bft) N 0 0 min 0,000 mm 0 W/m -2,2 C 6,1 C 0,0 km/h (0 Bft) 100 %
21.03.2022 23:30 5,1 C 5,1 C 6,1 C 60 % 1031,1 hPa 0,0 l/m 0,0 km/h (0 Bft) N 0 0 min 0,000 mm 0 W/m -2,0 C 5,1 C 0,0 km/h (0 Bft) 100 %
21.03.2022 23:40 4,2 C 4,2 C 5,1 C 63 % 1031,0 hPa 0,0 l/m 0,0 km/h (0 Bft) N 0 0 min 0,000 mm 0 W/m -2,2 C 4,2 C 0,0 km/h (0 Bft) 100 %
21.03.2022 23:50 3,3 C 3,3 C 4,2 C 66 % 1031,1 hPa 0,0 l/m 0,0 km/h (0 Bft) N 0 0 min 0,000 mm 0 W/m -2,4 C 3,3 C 0,0 km/h (0 Bft) 100 %
_ Min-Zeit 07:00 07:00 07:10 13:20 00:00 - 00:00 - - - - - 05:30 07:00 00:00 07:10
Minimum _ 1,1 C 1,1 C 1,1 C 38 % 1030,0 hPa - 0,0 km/h (0 Bft) - - - - - -3,6 C 1,1 C 0,0 km/h (0 Bft) 86 %
_ Max-Zeit 14:50 15:30 14:50 07:00 09:20 00:00 13:30 - - 12:50 14:00 13:00 15:20 14:50 13:30 00:00
Maximum _ 16,1 C 15,9 C 16,1 C 72 % 1032,3 hPa 0,0 l/m 2,8 km/h
O-NO (1 Bft)
- - 30 min 0,280 mm 670 W/m 2,8 C 16,0 C 16,1 km/h
SO (3 Bft)
100 %
Durchschnitt _ 8,3 C 8,2 C 8,5 C 53 % 1030,9 hPa #0,0 l/m 0,1 km/h (0 Bft) O-NO - #9:00 h #2,209 mm 309 W/m -1,0 C 8,3 C 2,2 km/h (1 Bft) 99 %
PRIVATE WETTERSTATION BILLIGHEIM-ALLFELD - www.neckar-odenwald-wetter.de - Holger Sonntag